Flag for United Kingdom Weather past 2 weeks in Edinburgh, Scotland, United Kingdom

Now
57 °F

Light rain. Clear.


Feels Like: 54 °F
Forecast: 51 / 65 °F
Wind: 15 mph from West

Location: Edinburgh Airport

Current Time: Aug 30, 2014 at 2:08:02 AM

Latest Report: Aug 30, 2014 at 1:20 AM


Visibility: N/A

Pressure: 29.62 "Hg

Humidity: 88%

Dew point: 54 °F

Location of EdinburghLocation

Historic Weather in Edinburgh — Graph

°F

Edinburgh temperature yesterday

Maximum temperature yesterday: 63 °F (at 11:20 AM)
Minimum temperature yesterday: 55 °F (at 10:50 PM)
Average temperature yesterday: 58 °F

Past Weeks' High & Low Weather Summary

 TemperatureHumidityPressure
High70 °F (Aug 28, 1:20 PM)100% (Aug 15, 1:20 AM)30.07 "Hg (Aug 15, 1:20 AM)
Low34 °F (Aug 27, 6:20 AM)45% (Aug 24, 5:20 PM)29.45 "Hg (Aug 17, 12:20 PM)
Average54 °F79%29.83 "Hg
* Reported Aug 15 12:20 AM — Aug 30 12:20 AM, Edinburgh, Weather by CustomWeather, © 2014

Note: Actual official high and low records may vary slightly from our data, if they occured in-between our weather recording intervals... More about our weather records

Advertising

Edinburgh weather history for previous 24 hours

 ConditionsComfort  
Time TempWeatherWind HumidityBarometerVisibility
12:20 AM
Aug 30
57 °FPassing clouds.14 mph88%29.59 "HgN/A
11:50 PM
Aug 29
57 °FOvercast.15 mph88%29.59 "HgN/A
11:20 PM57 °FMostly cloudy.15 mph88%29.59 "HgN/A
10:50 PM55 °FPassing clouds.14 mph94%29.59 "HgN/A
10:20 PM57 °FPartly cloudy.16 mph88%29.56 "HgN/A
8:20 PM57 °FPartly sunny.16 mph88%29.53 "HgN/A
7:50 PM57 °FLight rain. Broken clouds.18 mph94%29.53 "Hg4 mi
7:20 PM57 °FScattered showers. Partly sunny.17 mph94%29.53 "HgN/A
6:50 PM57 °FDrizzle. Partly sunny.13 mph94%29.53 "Hg5 mi
6:20 PM57 °FScattered clouds.15 mph94%29.53 "HgN/A
5:50 PM57 °FMostly cloudy.17 mph94%29.53 "HgN/A
5:20 PM57 °FDrizzle. Partly sunny.18 mph88%29.53 "Hg4 mi
4:50 PM57 °FDrizzle. Partly sunny.18 mph94%29.53 "Hg3 mi
4:20 PM57 °FDrizzle. Partly sunny.15 mph94%29.53 "Hg5 mi
3:50 PM57 °FDrizzle. Partly sunny.21 mph88%29.53 "Hg5 mi
3:20 PM59 °FScattered showers. Partly sunny.24 mph82%29.53 "Hg5 mi
2:50 PM59 °FScattered showers. Partly sunny.17 mph88%29.53 "Hg5 mi
2:20 PM59 °FLight rain. Broken clouds.16 mph88%29.53 "HgN/A
1:50 PM59 °FLight rain. Broken clouds.17 mph88%29.53 "Hg4 mi
1:20 PM57 °FLight rain. Partly sunny.18 mph88%29.53 "Hg4 mi
12:50 PM59 °FPartly sunny.18 mph82%29.53 "HgN/A
12:20 PM57 °FLight rain. Partly sunny.15 mph88%29.53 "Hg5 mi
11:50 AM59 °FLight rain. Partly sunny.16 mph82%29.53 "Hg4 mi
11:20 AM63 °FScattered showers. Broken clouds.17 mph68%29.50 "HgN/A
10:50 AM61 °FPartly sunny.18 mph72%29.50 "HgN/A
10:20 AM61 °FPartly sunny.15 mph77%29.50 "HgN/A
9:50 AM61 °FScattered clouds.14 mph77%29.50 "HgN/A
9:20 AM59 °FSnow. Passing clouds.14 mph82%29.50 "HgN/A
8:50 AM59 °FPassing clouds.16 mph82%29.50 "HgN/A
8:20 AM59 °FPassing clouds.12 mph82%29.50 "HgN/A
7:50 AM59 °FScattered clouds.10 mph82%29.50 "HgN/A
7:20 AM59 °FPassing clouds.12 mph82%29.50 "HgN/A
6:50 AM57 °FPassing clouds.10 mph88%29.50 "HgN/A
6:20 AM57 °FSnow. Passing clouds.10 mph88%29.50 "HgN/A
5:50 AM59 °FPassing clouds.9 mph82%29.50 "HgN/A
5:20 AM59 °FPassing clouds.5 mph82%29.50 "HgN/A
4:50 AM57 °FLight rain. Passing clouds.6 mph88%29.53 "HgN/A
4:20 AM59 °FLight rain. Passing clouds.6 mph82%29.53 "HgN/A
3:50 AM59 °FLight rain. Passing clouds.7 mph82%29.53 "HgN/A
3:20 AM59 °FPassing clouds.6 mph82%29.56 "HgN/A
2:50 AM59 °FPassing clouds.5 mph82%29.56 "HgN/A
2:20 AM59 °FPassing clouds.5 mph82%29.56 "HgN/A
Weather by CustomWeather, © 2014

See weather overviewHow to use our weather pages